| time (UTC) | temp F | wind direction | speed knots | gust knots | rain 1hr in | rain 24hr in | rain mn in | humidity % | barometer mb |
| 20260510094559 | 48 | 260 | 1.7 | 4.3 | 0.00 | 0.33 | 0.20 | 95 | 949.8 |
| 20260510093052 | 48 | 241 | 4.3 | 7.8 | 0.00 | 0.33 | 0.20 | 95 | 949.9 |
| 20260510091550 | 48 | 256 | 1.7 | 6.1 | 0.00 | 0.33 | 0.20 | 95 | 949.7 |
| 20260510090055 | 47 | 248 | 2.6 | 6.1 | 0.00 | 0.33 | 0.20 | 95 | 949.5 |
| 20260510084602 | 47 | 252 | 2.6 | 7.0 | 0.00 | 0.34 | 0.20 | 94 | 949.5 |
| 20260510083114 | 47 | 269 | 4.3 | 8.7 | 0.00 | 0.34 | 0.20 | 94 | 949.3 |
| 20260510081612 | 47 | 257 | 5.2 | 8.7 | 0.00 | 0.34 | 0.20 | 93 | 949.2 |
| 20260510080048 | 48 | 254 | 5.2 | 7.8 | 0.00 | 0.34 | 0.20 | 93 | 949.0 |
| 20260510074551 | 48 | 250 | 2.6 | 8.7 | 0.00 | 0.35 | 0.20 | 93 | 948.9 |
| 20260510073051 | 48 | 239 | 4.3 | 7.0 | 0.00 | 0.35 | 0.20 | 93 | 948.8 |
| 20260510071547 | 48 | 270 | 3.5 | 6.1 | 0.00 | 0.35 | 0.20 | 93 | 949.0 |
| 20260510070047 | 48 | 252 | 5.2 | 8.7 | 0.00 | 0.35 | 0.20 | 94 | 948.7 |
| 20260510064549 | 48 | 247 | 4.3 | 8.7 | 0.00 | 0.35 | 0.20 | 94 | 948.9 |
| 20260510063046 | 48 | 238 | 4.3 | 12.2 | 0.00 | 0.35 | 0.20 | 95 | 948.6 |
| 20260510061555 | 48 | 245 | 4.3 | 9.6 | 0.01 | 0.35 | 0.20 | 95 | 949.1 |
| 20260510060046 | 48 | 240 | 5.2 | 8.7 | 0.03 | 0.35 | 0.20 | 96 | 949.3 |
| 20260510054544 | 48 | 230 | 4.3 | 8.7 | 0.03 | 0.35 | 0.20 | 96 | 949.6 |
| 20260510053052 | 48 | 229 | 4.3 | 7.0 | 0.03 | 0.35 | 0.20 | 96 | 950.2 |
| 20260510051544 | 48 | 260 | 1.7 | 5.2 | 0.02 | 0.34 | 0.19 | 96 | 950.5 |
| 20260510050043 | 48 | 328 | 0.9 | 2.6 | 0.01 | 0.33 | 0.18 | 96 | 950.6 |
| 20260510044547 | 48 | 10 | 1.7 | 7.0 | 0.00 | 0.32 | 0.17 | 96 | 950.7 |
| 20260510043043 | 49 | 17 | 4.3 | 12.2 | 0.00 | 0.32 | 0.17 | 96 | 950.8 |
| 20260510041540 | 49 | 321 | 7.0 | 11.3 | 0.00 | 0.32 | 0.17 | 96 | 950.3 |
| 20260510040041 | 49 | 5 | 2.6 | 8.7 | 0.00 | 0.32 | 0.17 | 96 | 949.5 |
| 20260510034545 | 49 | 250 | 6.1 | 9.6 | 0.00 | 0.32 | 0.17 | 96 | 949.0 |
| 20260510033040 | 49 | 253 | 5.2 | 9.6 | 0.00 | 0.32 | 0.17 | 96 | 948.9 |
| 20260510031555 | 49 | 263 | 7.0 | 9.6 | 0.00 | 0.32 | 0.17 | 96 | 949.1 |
| 20260510030038 | 49 | 265 | 7.0 | 10.4 | 0.00 | 0.32 | 0.17 | 96 | 949.0 |
| 20260510024538 | 49 | 238 | 7.0 | 11.3 | 0.00 | 0.32 | 0.17 | 96 | 948.7 |
| 20260510023041 | 49 | 250 | 7.0 | 12.2 | 0.00 | 0.32 | 0.17 | 95 | 948.5 |
| 20260510021634 | 49 | 247 | 7.0 | 13.0 | 0.00 | 0.32 | 0.17 | 95 | 948.6 |
| 20260510020035 | 49 | 235 | 6.1 | 13.9 | 0.00 | 0.32 | 0.17 | 95 | 948.7 |
| 20260510014534 | 49 | 238 | 7.0 | 10.4 | 0.00 | 0.32 | 0.17 | 95 | 948.3 |
| 20260510013033 | 50 | 252 | 6.1 | 12.2 | 0.00 | 0.32 | 0.17 | 95 | 948.5 |
| 20260510011533 | 50 | 248 | 6.1 | 12.2 | 0.00 | 0.32 | 0.17 | 95 | 948.3 |
| 20260510010032 | 50 | 263 | 7.8 | 13.9 | 0.00 | 0.32 | 0.17 | 95 | 948.4 |
| 20260510004531 | 50 | 237 | 5.2 | 12.2 | 0.00 | 0.32 | 0.17 | 95 | 948.0 |
| 20260510003032 | 50 | 250 | 6.1 | 9.6 | 0.00 | 0.32 | 0.17 | 95 | 948.0 |
| 20260510001530 | 50 | 229 | 5.2 | 11.3 | 0.00 | 0.32 | 0.17 | 95 | 947.9 |
| 20260510000035 | 50 | 263 | 6.1 | 8.7 | 0.00 | 0.32 | 0.17 | 95 | 947.8 |
| 20260509234538 | 50 | 259 | 5.2 | 7.8 | 0.00 | 0.32 | 0.17 | 95 | 947.8 |
| 20260509233030 | 51 | 241 | 3.5 | 7.8 | 0.00 | 0.32 | 0.17 | 95 | 947.4 |
| 20260509231530 | 51 | 268 | 5.2 | 8.7 | 0.00 | 0.32 | 0.17 | 95 | 947.6 |
| 20260509230027 | 51 | 255 | 6.1 | 9.6 | 0.00 | 0.32 | 0.17 | 96 | 947.7 |
| 20260509224527 | 51 | 246 | 3.5 | 11.3 | 0.00 | 0.32 | 0.17 | 96 | 947.6 |
| 20260509223027 | 51 | 237 | 6.1 | 10.4 | 0.00 | 0.32 | 0.17 | 97 | 947.5 |
| 20260509221525 | 50 | 260 | 8.7 | 13.0 | 0.00 | 0.32 | 0.17 | 97 | 947.3 |
| 20260509220026 | 50 | 286 | 5.2 | 9.6 | 0.00 | 0.32 | 0.17 | 97 | 947.6 |
| 20260509214526 | 50 | 256 | 6.1 | 10.4 | 0.00 | 0.32 | 0.17 | 97 | 947.7 |
| 20260509213025 | 50 | 252 | 3.5 | 8.7 | 0.00 | 0.32 | 0.17 | 98 | 947.7 |
| 20260509211523 | 50 | 250 | 7.8 | 13.0 | 0.00 | 0.32 | 0.17 | 98 | 947.7 |
| 20260509210026 | 49 | 240 | 7.8 | 12.2 | 0.01 | 0.32 | 0.17 | 98 | 947.9 |
| 20260509204516 | 49 | 280 | 5.2 | 9.6 | 0.01 | 0.32 | 0.17 | 98 | 948.1 |
| 20260509203014 | 49 | 257 | 5.2 | 8.7 | 0.01 | 0.32 | 0.17 | 98 | 948.2 |
| 20260509201514 | 48 | 244 | 7.0 | 12.2 | 0.03 | 0.32 | 0.17 | 97 | 948.2 |
| 20260509200015 | 48 | 257 | 7.0 | 13.0 | 0.03 | 0.31 | 0.16 | 97 | 948.5 |
| 20260509194521 | 48 | 221 | 5.2 | 11.3 | 0.05 | 0.31 | 0.16 | 97 | 948.5 |
| 20260509193013 | 48 | 250 | 7.0 | 10.4 | 0.05 | 0.31 | 0.16 | 97 | 948.6 |
| 20260509191513 | 48 | 286 | 5.2 | 10.4 | 0.04 | 0.30 | 0.15 | 97 | 948.7 |
| 20260509190011 | 48 | 263 | 5.2 | 7.8 | 0.03 | 0.28 | 0.13 | 97 | 948.6 |
| 20260509184513 | 48 | 262 | 6.1 | 11.3 | 0.01 | 0.26 | 0.11 | 97 | 948.7 |
| 20260509183009 | 48 | 266 | 6.1 | 12.2 | 0.01 | 0.26 | 0.11 | 97 | 948.7 |
| 20260509181509 | 48 | 260 | 5.2 | 12.2 | 0.01 | 0.26 | 0.11 | 97 | 948.8 |
| 20260509180008 | 48 | 244 | 7.0 | 11.3 | 0.01 | 0.26 | 0.11 | 97 | 948.8 |
| 20260509174508 | 48 | 252 | 6.1 | 10.4 | 0.00 | 0.25 | 0.10 | 96 | 948.7 |
| 20260509173007 | 48 | 252 | 6.1 | 11.3 | 0.00 | 0.25 | 0.10 | 96 | 948.7 |
| 20260509171510 | 48 | 225 | 5.2 | 11.3 | 0.00 | 0.25 | 0.10 | 96 | 948.6 |
| 20260509170007 | 48 | 265 | 6.1 | 11.3 | 0.01 | 0.25 | 0.10 | 96 | 948.7 |
| 20260509164505 | 48 | 253 | 7.0 | 13.0 | 0.01 | 0.25 | 0.10 | 96 | 948.6 |
| 20260509163005 | 48 | 219 | 7.0 | 12.2 | 0.01 | 0.25 | 0.10 | 96 | 948.8 |
| 20260509161502 | 48 | 255 | 6.1 | 13.0 | 0.01 | 0.25 | 0.10 | 97 | 949.0 |
| 20260509160004 | 48 | 266 | 7.0 | 13.9 | 0.01 | 0.24 | 0.09 | 97 | 949.0 |
| 20260509154502 | 48 | 254 | 7.0 | 15.6 | 0.02 | 0.25 | 0.09 | 97 | 949.1 |
| 20260509153101 | 47 | 232 | 6.1 | 13.0 | 0.02 | 0.25 | 0.09 | 97 | 949.3 |
| 20260509151558 | 47 | 223 | 6.1 | 14.8 | 0.03 | 0.25 | 0.09 | 97 | 949.5 |
| 20260509150055 | 47 | 254 | 4.3 | 9.6 | 0.03 | 0.24 | 0.08 | 98 | 949.8 |
| 20260509144550 | 47 | 231 | 2.6 | 5.2 | 0.03 | 0.24 | 0.08 | 97 | 949.8 |
| 20260509143054 | 46 | 226 | 4.3 | 7.8 | 0.03 | 0.23 | 0.07 | 97 | 949.9 |
| 20260509141559 | 47 | 196 | 2.6 | 7.0 | 0.03 | 0.22 | 0.06 | 97 | 949.8 |
| 20260509140058 | 46 | 211 | 1.7 | 8.7 | 0.04 | 0.21 | 0.05 | 97 | 949.6 |
| 20260509134545 | 46 | 224 | 6.1 | 8.7 | 0.05 | 0.21 | 0.05 | 97 | 949.7 |
| 20260509133044 | 46 | 232 | 2.6 | 7.8 | 0.05 | 0.20 | 0.04 | 97 | 950.0 |
| 20260509131544 | 46 | 235 | 3.5 | 7.0 | 0.05 | 0.19 | 0.03 | 97 | 949.9 |
| 20260509130044 | 46 | 229 | 2.6 | 8.7 | 0.04 | 0.17 | 0.01 | 97 | 950.2 |
| 20260509124540 | 46 | 272 | 1.7 | 3.5 | 0.04 | 0.16 | 0.16 | 97 | 950.2 |
| 20260509123048 | 46 | 263 | 5.2 | 9.6 | 0.03 | 0.15 | 0.15 | 97 | 950.2 |
| 20260509121536 | 45 | 248 | 6.1 | 9.6 | 0.04 | 0.14 | 0.14 | 97 | 950.3 |
| 20260509120043 | 45 | 260 | 6.1 | 9.6 | 0.06 | 0.14 | 0.14 | 97 | 950.3 |
| 20260509114544 | 45 | 234 | 4.3 | 11.3 | 0.05 | 0.12 | 0.12 | 97 | 950.2 |
| 20260509113057 | 45 | 243 | 2.6 | 8.7 | 0.07 | 0.12 | 0.12 | 97 | 950.2 |
| 20260509111547 | 44 | 246 | 3.5 | 8.7 | 0.07 | 0.11 | 0.11 | 97 | 950.0 |
| 20260509110035 | 44 | 262 | 4.3 | 11.3 | 0.05 | 0.09 | 0.09 | 97 | 950.2 |
| 20260509104534 | 44 | 236 | 5.2 | 9.6 | 0.03 | 0.07 | 0.07 | 96 | 950.2 |
| 20260509103040 | 44 | 259 | 5.2 | 8.7 | 0.01 | 0.05 | 0.05 | 96 | 950.1 |
| 20260509101534 | 44 | 236 | 4.3 | 7.8 | 0.01 | 0.04 | 0.04 | 96 | 950.0 |
| 20260509100040 | 44 | 259 | 4.3 | 7.8 | 0.01 | 0.04 | 0.04 | 96 | 950.1 |